| time (UTC) | temp C | wind direction | speed KPH | gust KPH | rain 1hr cm | rain 24hr cm | rain mn cm | humidity % | barometer mb |
| 20260903131004 | 20 | 252 | 16.1 | 25.7 | 0.00 | 0.71 | 0.25 | 88 | 1016.5 |
| 20260903130504 | 20 | 228 | 16.1 | 25.7 | 0.00 | 0.71 | 0.25 | 86 | 1016.5 |
| 20260903130004 | 20 | 216 | 16.1 | 22.5 | 0.00 | 0.74 | 0.25 | 86 | 1016.5 |
| 20260903125504 | 20 | 245 | 14.5 | 24.1 | 0.00 | 0.74 | 0.25 | 86 | 1016.5 |
| 20260903124503 | 21 | 235 | 17.7 | 29.0 | 0.00 | 0.74 | 0.25 | 81 | 1016.4 |
| 20260903124004 | 21 | 264 | 19.3 | 27.4 | 0.00 | 0.79 | 0.25 | 80 | 1016.5 |
| 20260903123504 | 21 | 237 | 16.1 | 27.4 | 0.00 | 0.79 | 0.25 | 80 | 1016.6 |
| 20260903123004 | 21 | 237 | 20.9 | 32.2 | 0.00 | 0.79 | 0.25 | 79 | 1016.6 |
| 20260903122504 | 21 | 248 | 20.9 | 29.0 | 0.00 | 0.79 | 0.25 | 78 | 1016.5 |
| 20260903122004 | 21 | 242 | 20.9 | 32.2 | 0.00 | 0.79 | 0.25 | 77 | 1016.5 |
| 20260903121004 | 21 | 235 | 11.3 | 27.4 | 0.00 | 0.79 | 0.25 | 81 | 1016.5 |
| 20260903120503 | 21 | 275 | 12.9 | 22.5 | 0.00 | 0.79 | 0.25 | 82 | 1016.4 |
| 20260903120004 | 21 | 261 | 16.1 | 24.1 | 0.00 | 0.79 | 0.25 | 81 | 1016.6 |
| 20260903115504 | 20 | 264 | 19.3 | 27.4 | 0.00 | 0.79 | 0.25 | 81 | 1016.6 |
| 20260903115003 | 20 | 255 | 19.3 | 24.1 | 0.00 | 0.79 | 0.25 | 81 | 1016.6 |
| 20260903114503 | 20 | 233 | 12.9 | 24.1 | 0.00 | 0.79 | 0.25 | 81 | 1016.7 |
| 20260903114004 | 20 | 259 | 11.3 | 20.9 | 0.00 | 0.79 | 0.25 | 81 | 1016.7 |
| 20260903113503 | 20 | 261 | 14.5 | 20.9 | 0.00 | 0.79 | 0.25 | 80 | 1016.7 |
| 20260903113004 | 20 | 264 | 14.5 | 25.7 | 0.00 | 0.79 | 0.25 | 80 | 1016.7 |
| 20260903112503 | 21 | 274 | 14.5 | 24.1 | 0.00 | 0.79 | 0.25 | 79 | 1016.6 |
| 20260903112003 | 21 | 253 | 11.3 | 20.9 | 0.00 | 0.79 | 0.25 | 79 | 1016.6 |
| 20260903111503 | 21 | 239 | 11.3 | 20.9 | 0.00 | 0.81 | 0.25 | 79 | 1016.6 |
| 20260903111004 | 21 | 257 | 14.5 | 24.1 | 0.00 | 0.84 | 0.25 | 79 | 1016.6 |
| 20260903110504 | 21 | 235 | 14.5 | 27.4 | 0.00 | 0.86 | 0.25 | 78 | 1016.7 |
| 20260903105504 | 21 | 251 | 16.1 | 27.4 | 0.00 | 0.86 | 0.25 | 81 | 1016.7 |
| 20260903105003 | 21 | 253 | 12.9 | 22.5 | 0.00 | 0.89 | 0.25 | 81 | 1016.7 |
| 20260903104503 | 20 | 277 | 16.1 | 29.0 | 0.00 | 0.89 | 0.25 | 82 | 1016.8 |
| 20260903104005 | 20 | 242 | 20.9 | 32.2 | 0.00 | 0.89 | 0.25 | 82 | 1016.7 |
| 20260903103503 | 20 | 253 | 17.7 | 29.0 | 0.00 | 0.89 | 0.25 | 82 | 1016.7 |
| 20260903103004 | 20 | 257 | 17.7 | 29.0 | 0.00 | 0.89 | 0.25 | 81 | 1016.6 |
| 20260903102504 | 20 | 246 | 19.3 | 29.0 | 0.00 | 0.89 | 0.25 | 81 | 1016.5 |
| 20260903102003 | 20 | 243 | 19.3 | 32.2 | 0.00 | 0.89 | 0.25 | 82 | 1016.5 |
| 20260903101004 | 20 | 242 | 14.5 | 24.1 | 0.00 | 0.89 | 0.25 | 84 | 1016.5 |
| 20260903100504 | 20 | 245 | 11.3 | 20.9 | 0.00 | 0.91 | 0.25 | 84 | 1016.6 |
| 20260903100004 | 20 | 280 | 12.9 | 22.5 | 0.00 | 0.91 | 0.25 | 84 | 1016.6 |
| 20260903095003 | 20 | 265 | 14.5 | 22.5 | 0.00 | 0.97 | 0.25 | 84 | 1016.7 |
| 20260903094504 | 20 | 233 | 17.7 | 25.7 | 0.00 | 0.99 | 0.25 | 84 | 1016.8 |
| 20260903093503 | 20 | 277 | 17.7 | 29.0 | 0.00 | 0.99 | 0.25 | 84 | 1016.8 |
| 20260903093003 | 20 | 249 | 19.3 | 32.2 | 0.00 | 1.02 | 0.25 | 84 | 1016.7 |
| 20260903092504 | 19 | 272 | 16.1 | 25.7 | 0.00 | 1.04 | 0.25 | 86 | 1016.7 |
| 20260903091503 | 18 | 247 | 16.1 | 27.4 | 0.00 | 1.09 | 0.25 | 86 | 1016.7 |
| 20260903091003 | 18 | 261 | 9.7 | 19.3 | 0.00 | 1.09 | 0.25 | 87 | 1016.7 |
| 20260903090504 | 18 | 268 | 12.9 | 22.5 | 0.00 | 1.14 | 0.25 | 87 | 1016.8 |
| 20260903090004 | 18 | 280 | 9.7 | 19.3 | 0.00 | 1.17 | 0.25 | 88 | 1016.8 |
| 20260903085504 | 18 | 264 | 14.5 | 22.5 | 0.00 | 1.17 | 0.25 | 88 | 1016.8 |
| 20260903085004 | 18 | 276 | 11.3 | 20.9 | 0.00 | 1.17 | 0.25 | 89 | 1016.8 |
| 20260903084004 | 18 | 239 | 9.7 | 25.7 | 0.00 | 1.19 | 0.25 | 89 | 1016.7 |
| 20260903083503 | 18 | 268 | 14.5 | 20.9 | 0.00 | 1.19 | 0.25 | 90 | 1016.7 |
| 20260903083003 | 18 | 267 | 9.7 | 20.9 | 0.03 | 1.22 | 0.25 | 90 | 1016.7 |
| 20260903082504 | 18 | 228 | 8.0 | 20.9 | 0.03 | 1.24 | 0.25 | 90 | 1016.8 |
| 20260903082004 | 18 | 247 | 14.5 | 20.9 | 0.03 | 1.27 | 0.25 | 90 | 1016.8 |
| 20260903081504 | 18 | 256 | 12.9 | 24.1 | 0.03 | 1.27 | 0.25 | 90 | 1016.8 |
| 20260903081004 | 18 | 280 | 12.9 | 19.3 | 0.03 | 1.27 | 0.25 | 90 | 1016.8 |
| 20260903080504 | 17 | 274 | 12.9 | 20.9 | 0.03 | 1.27 | 0.25 | 90 | 1016.8 |
| 20260903075004 | 17 | 267 | 11.3 | 22.5 | 0.03 | 1.35 | 0.25 | 91 | 1016.7 |
| 20260903074503 | 17 | 256 | 12.9 | 20.9 | 0.03 | 1.35 | 0.25 | 91 | 1016.6 |
| 20260903074004 | 17 | 256 | 11.3 | 20.9 | 0.03 | 1.35 | 0.25 | 91 | 1016.6 |
| 20260903072504 | 17 | 259 | 9.7 | 19.3 | 0.00 | 1.32 | 0.23 | 92 | 1016.4 |
| 20260903072004 | 17 | 254 | 9.7 | 19.3 | 0.00 | 1.32 | 0.23 | 91 | 1016.3 |
| 20260903071504 | 17 | 236 | 11.3 | 22.5 | 0.00 | 1.32 | 0.23 | 91 | 1016.2 |
| 20260903071004 | 17 | 247 | 14.5 | 20.9 | 0.00 | 1.32 | 0.23 | 91 | 1016.2 |
| 20260903070504 | 17 | 257 | 12.9 | 20.9 | 0.00 | 1.32 | 0.23 | 91 | 1016.1 |
| 20260903070004 | 17 | 246 | 11.3 | 22.5 | 0.00 | 1.32 | 0.23 | 92 | 1016.1 |
| 20260903065504 | 17 | 273 | 11.3 | 24.1 | 0.00 | 1.32 | 0.23 | 92 | 1016.0 |
| 20260903065004 | 17 | 235 | 12.9 | 20.9 | 0.00 | 1.32 | 0.23 | 92 | 1015.9 |
| 20260903064503 | 17 | 243 | 11.3 | 19.3 | 0.00 | 1.32 | 0.23 | 92 | 1015.8 |
| 20260903064004 | 17 | 239 | 11.3 | 22.5 | 0.00 | 1.32 | 0.23 | 92 | 1015.8 |
| 20260903063504 | 17 | 245 | 14.5 | 22.5 | 0.00 | 1.32 | 0.23 | 92 | 1015.8 |
| 20260903063003 | 17 | 243 | 14.5 | 24.1 | 0.00 | 1.32 | 0.23 | 92 | 1015.7 |
| 20260903062504 | 17 | 236 | 12.9 | 25.7 | 0.00 | 1.32 | 0.23 | 92 | 1015.6 |
| 20260903062003 | 17 | 222 | 14.5 | 22.5 | 0.00 | 1.32 | 0.23 | 92 | 1015.7 |
| 20260903061503 | 17 | 238 | 14.5 | 20.9 | 0.00 | 1.32 | 0.23 | 92 | 1015.6 |
| 20260903060004 | 17 | 249 | 11.3 | 20.9 | 0.00 | 1.32 | 0.23 | 92 | 1015.6 |
| 20260903055503 | 17 | 244 | 11.3 | 22.5 | 0.00 | 1.32 | 0.23 | 92 | 1015.6 |
| 20260903055004 | 17 | 238 | 12.9 | 22.5 | 0.00 | 1.32 | 0.23 | 92 | 1015.5 |
| 20260903054504 | 17 | 237 | 11.3 | 22.5 | 0.00 | 1.32 | 0.23 | 92 | 1015.5 |
| 20260903054004 | 17 | 253 | 14.5 | 24.1 | 0.00 | 1.32 | 0.23 | 92 | 1015.7 |
| 20260903053504 | 17 | 247 | 12.9 | 25.7 | 0.00 | 1.32 | 0.23 | 92 | 1015.7 |
| 20260903053004 | 17 | 250 | 11.3 | 19.3 | 0.00 | 1.32 | 0.23 | 92 | 1015.6 |
| 20260903052504 | 17 | 254 | 11.3 | 19.3 | 0.00 | 1.32 | 0.23 | 92 | 1015.5 |
| 20260903051504 | 17 | 250 | 8.0 | 16.1 | 0.00 | 1.32 | 0.23 | 92 | 1015.4 |
| 20260903051004 | 17 | 271 | 9.7 | 19.3 | 0.00 | 1.32 | 0.23 | 92 | 1015.4 |
| 20260903050504 | 17 | 260 | 14.5 | 20.9 | 0.00 | 1.32 | 0.23 | 92 | 1015.5 |
| 20260903045503 | 17 | 270 | 12.9 | 27.4 | 0.00 | 1.32 | 0.23 | 92 | 1015.5 |
| 20260903045004 | 17 | 273 | 11.3 | 19.3 | 0.00 | 1.32 | 0.23 | 92 | 1015.5 |
| 20260903044503 | 17 | 262 | 14.5 | 25.7 | 0.00 | 1.32 | 0.23 | 92 | 1015.4 |
| 20260903044004 | 17 | 250 | 14.5 | 32.2 | 0.00 | 1.32 | 0.23 | 92 | 1015.2 |
| 20260903043503 | 17 | 253 | 14.5 | 29.0 | 0.00 | 1.32 | 0.23 | 92 | 1015.2 |
| 20260903043003 | 17 | 246 | 17.7 | 29.0 | 0.00 | 1.32 | 0.23 | 92 | 1015.3 |
| 20260903042504 | 17 | 249 | 14.5 | 29.0 | 0.00 | 1.32 | 0.23 | 93 | 1015.3 |
| 20260903041003 | 17 | 251 | 14.5 | 25.7 | 0.00 | 1.32 | 0.23 | 93 | 1015.3 |
| 20260903040504 | 17 | 251 | 14.5 | 25.7 | 0.00 | 1.32 | 0.23 | 93 | 1015.3 |
| 20260903040004 | 17 | 246 | 14.5 | 24.1 | 0.00 | 1.32 | 0.23 | 93 | 1015.4 |
| 20260903035503 | 17 | 258 | 12.9 | 19.3 | 0.00 | 1.32 | 0.23 | 93 | 1015.4 |
| 20260903035004 | 17 | 235 | 11.3 | 22.5 | 0.00 | 1.32 | 0.23 | 93 | 1015.4 |
| 20260903034004 | 17 | 251 | 16.1 | 24.1 | 0.00 | 1.32 | 0.23 | 93 | 1015.2 |
| 20260903033504 | 17 | 245 | 14.5 | 22.5 | 0.00 | 1.32 | 0.23 | 93 | 1015.1 |
| 20260903033003 | 17 | 256 | 11.3 | 20.9 | 0.00 | 1.32 | 0.23 | 93 | 1015.3 |
| 20260903032504 | 17 | 247 | 16.1 | 22.5 | 0.00 | 1.32 | 0.23 | 93 | 1015.3 |
| 20260903032004 | 17 | 255 | 19.3 | 29.0 | 0.00 | 1.32 | 0.23 | 93 | 1015.3 |
| 20260903031004 | 17 | 248 | 12.9 | 19.3 | 0.00 | 1.32 | 0.23 | 93 | 1015.2 |
| 20260903030503 | 17 | 257 | 16.1 | 25.7 | 0.00 | 1.32 | 0.23 | 93 | 1015.1 |
| 20260903030004 | 17 | 252 | 11.3 | 24.1 | 0.00 | 1.32 | 0.23 | 93 | 1015.0 |
| 20260903025504 | 17 | 254 | 12.9 | 25.7 | 0.00 | 1.32 | 0.23 | 93 | 1015.0 |
| 20260903024504 | 17 | 241 | 16.1 | 27.4 | 0.03 | 1.32 | 0.23 | 94 | 1015.2 |
| 20260903024004 | 17 | 258 | 17.7 | 25.7 | 0.03 | 1.32 | 0.23 | 94 | 1015.1 |
| 20260903023503 | 17 | 249 | 19.3 | 32.2 | 0.03 | 1.32 | 0.23 | 94 | 1015.1 |
| 20260903023004 | 17 | 250 | 16.1 | 22.5 | 0.03 | 1.32 | 0.23 | 94 | 1015.1 |
| 20260903022504 | 18 | 242 | 17.7 | 25.7 | 0.03 | 1.32 | 0.23 | 94 | 1015.1 |
| 20260903022003 | 18 | 245 | 20.9 | 40.2 | 0.03 | 1.32 | 0.23 | 94 | 1015.0 |
| 20260903021004 | 18 | 234 | 14.5 | 27.4 | 0.03 | 1.32 | 0.23 | 94 | 1014.9 |
| 20260903020003 | 18 | 244 | 17.7 | 29.0 | 0.05 | 1.32 | 0.23 | 94 | 1014.9 |
| 20260903015504 | 17 | 247 | 17.7 | 25.7 | 0.05 | 1.32 | 0.23 | 94 | 1015.0 |
| 20260903014504 | 17 | 255 | 16.1 | 29.0 | 0.08 | 1.30 | 0.23 | 94 | 1015.0 |
| 20260903013503 | 17 | 255 | 12.9 | 25.7 | 0.10 | 1.30 | 0.23 | 94 | 1015.2 |
| 20260903012504 | 17 | 242 | 20.9 | 32.2 | 0.10 | 1.30 | 0.23 | 94 | 1015.1 |
| 20260903010504 | 17 | 225 | 11.3 | 25.7 | 0.15 | 1.27 | 0.20 | 94 | 1014.9 |
| 20260903010003 | 17 | 246 | 11.3 | 19.3 | 0.15 | 1.27 | 0.20 | 94 | 1015.0 |
| 20260903005503 | 17 | 237 | 9.7 | 19.3 | 0.15 | 1.27 | 0.18 | 94 | 1014.9 |
| 20260903004004 | 17 | 252 | 11.3 | 19.3 | 0.10 | 1.19 | 0.13 | 94 | 1015.1 |
| 20260903003503 | 17 | 267 | 11.3 | 25.7 | 0.10 | 1.19 | 0.13 | 94 | 1015.2 |
| 20260903003003 | 17 | 266 | 16.1 | 27.4 | 0.10 | 1.19 | 0.13 | 94 | 1015.2 |
| 20260903002503 | 17 | 259 | 14.5 | 20.9 | 0.13 | 1.19 | 0.13 | 94 | 1015.5 |
| 20260903002004 | 18 | 263 | 12.9 | 24.1 | 0.10 | 1.17 | 0.10 | 94 | 1015.4 |
| 20260903000504 | 17 | 257 | 16.1 | 40.2 | 0.05 | 1.12 | 0.05 | 94 | 1015.3 |
| 20260903000004 | 17 | 230 | 17.7 | 27.4 | 0.05 | 1.12 | 0.05 | 94 | 1015.3 |
| 20260902235503 | 17 | 251 | 17.7 | 29.0 | 0.05 | 1.12 | 0.05 | 94 | 1015.3 |
| 20260902234503 | 17 | 250 | 19.3 | 32.2 | 0.05 | 1.09 | 0.03 | 94 | 1015.2 |
| 20260902234003 | 17 | 243 | 14.5 | 29.0 | 0.05 | 1.09 | 0.03 | 94 | 1015.5 |
| 20260902233504 | 17 | 239 | 17.7 | 29.0 | 0.05 | 1.09 | 0.03 | 94 | 1015.6 |
| 20260902233003 | 17 | 239 | 16.1 | 25.7 | 0.08 | 1.09 | 0.03 | 94 | 1015.6 |
| 20260902232504 | 17 | 242 | 12.9 | 25.7 | 0.05 | 1.09 | 0.00 | 94 | 1015.7 |
| 20260902231503 | 17 | 238 | 16.1 | 29.0 | 0.08 | 1.09 | 0.00 | 94 | 1015.6 |
| 20260902231004 | 17 | 243 | 20.9 | 32.2 | 0.08 | 1.09 | 0.00 | 94 | 1015.6 |
| 20260902230504 | 17 | 257 | 17.7 | 33.8 | 0.08 | 1.09 | 0.00 | 94 | 1015.6 |
| 20260902230004 | 17 | 242 | 16.1 | 41.8 | 0.10 | 1.09 | 0.00 | 94 | 1015.6 |
| 20260902225004 | 17 | 247 | 16.1 | 29.0 | 0.08 | 1.07 | 1.07 | 94 | 1015.7 |
| 20260902224503 | 17 | 235 | 12.9 | 32.2 | 0.10 | 1.07 | 1.07 | 94 | 1015.7 |
| 20260902223504 | 17 | 229 | 14.5 | 27.4 | 0.08 | 1.04 | 1.04 | 94 | 1015.5 |
| 20260902223004 | 17 | 230 | 14.5 | 25.7 | 0.05 | 1.02 | 1.02 | 94 | 1015.5 |
| 20260902222503 | 17 | 227 | 14.5 | 24.1 | 0.05 | 1.02 | 1.02 | 94 | 1015.5 |
| 20260902222004 | 17 | 247 | 17.7 | 32.2 | 0.08 | 1.02 | 1.02 | 94 | 1015.6 |
| 20260902221503 | 17 | 243 | 17.7 | 32.2 | 0.05 | 0.99 | 0.99 | 94 | 1015.6 |
| 20260902221004 | 17 | 222 | 16.1 | 33.8 | 0.05 | 0.99 | 0.99 | 94 | 1015.7 |
| 20260902220004 | 17 | 232 | 16.1 | 32.2 | 0.05 | 0.99 | 0.99 | 94 | 1015.6 |
| 20260902215503 | 17 | 238 | 19.3 | 29.0 | 0.05 | 0.99 | 0.99 | 94 | 1015.5 |
| 20260902215003 | 17 | 236 | 16.1 | 24.1 | 0.05 | 0.99 | 0.99 | 94 | 1015.6 |
| 20260902214503 | 17 | 243 | 17.7 | 29.0 | 0.05 | 0.97 | 0.97 | 94 | 1015.7 |
| 20260902214004 | 17 | 252 | 17.7 | 25.7 | 0.05 | 0.97 | 0.97 | 94 | 1015.7 |
| 20260902213504 | 17 | 252 | 12.9 | 29.0 | 0.05 | 0.97 | 0.97 | 94 | 1015.6 |
| 20260902213003 | 17 | 246 | 16.1 | 29.0 | 0.05 | 0.97 | 0.97 | 94 | 1015.8 |
| 20260902212503 | 17 | 256 | 16.1 | 27.4 | 0.08 | 0.97 | 0.97 | 94 | 1015.6 |
| 20260902211503 | 17 | 231 | 14.5 | 32.2 | 0.05 | 0.94 | 0.94 | 94 | 1015.7 |
| 20260902211004 | 17 | 243 | 14.5 | 22.5 | 0.08 | 0.94 | 0.94 | 94 | 1015.7 |
| 20260902210503 | 17 | 248 | 20.9 | 32.2 | 0.08 | 0.94 | 0.94 | 94 | 1015.7 |
| 20260902210004 | 17 | 243 | 14.5 | 27.4 | 0.05 | 0.91 | 0.91 | 94 | 1015.7 |
| 20260902205504 | 17 | 258 | 16.1 | 29.0 | 0.08 | 0.91 | 0.91 | 94 | 1015.7 |
| 20260902204503 | 17 | 252 | 19.3 | 25.7 | 0.05 | 0.89 | 0.89 | 93 | 1015.8 |
| 20260902204004 | 17 | 257 | 19.3 | 33.8 | 0.05 | 0.89 | 0.89 | 93 | 1015.8 |
| 20260902203503 | 17 | 254 | 17.7 | 29.0 | 0.05 | 0.89 | 0.89 | 93 | 1015.7 |
| 20260902203004 | 17 | 253 | 19.3 | 27.4 | 0.05 | 0.89 | 0.89 | 93 | 1015.5 |
| 20260902202503 | 17 | 247 | 14.5 | 25.7 | 0.05 | 0.89 | 0.89 | 93 | 1015.5 |
| 20260902201503 | 17 | 251 | 12.9 | 24.1 | 0.05 | 0.89 | 0.89 | 93 | 1015.3 |
| 20260902201003 | 17 | 232 | 14.5 | 20.9 | 0.03 | 0.86 | 0.86 | 93 | 1015.4 |
| 20260902200503 | 17 | 252 | 12.9 | 22.5 | 0.05 | 0.86 | 0.86 | 93 | 1015.5 |
| 20260902200003 | 17 | 268 | 11.3 | 20.9 | 0.05 | 0.86 | 0.86 | 93 | 1015.5 |
| 20260902195503 | 17 | 255 | 16.1 | 24.1 | 0.03 | 0.84 | 0.84 | 93 | 1015.5 |
| 20260902195004 | 17 | 257 | 14.5 | 20.9 | 0.03 | 0.84 | 0.84 | 93 | 1015.6 |
| 20260902194503 | 17 | 258 | 11.3 | 19.3 | 0.03 | 0.84 | 0.84 | 93 | 1015.5 |
| 20260902194004 | 17 | 269 | 12.9 | 25.7 | 0.03 | 0.84 | 0.84 | 93 | 1015.5 |
| 20260902193504 | 17 | 259 | 11.3 | 25.7 | 0.03 | 0.84 | 0.84 | 93 | 1015.4 |
| 20260902193004 | 17 | 252 | 14.5 | 24.1 | 0.03 | 0.84 | 0.84 | 93 | 1015.4 |
| 20260902192503 | 17 | 256 | 14.5 | 27.4 | 0.03 | 0.84 | 0.84 | 93 | 1015.3 |
| 20260902192004 | 17 | 243 | 8.0 | 20.9 | 0.03 | 0.84 | 0.84 | 93 | 1015.2 |
| 20260902191504 | 17 | 218 | 9.7 | 19.3 | 0.05 | 0.84 | 0.84 | 93 | 1015.2 |
| 20260902191004 | 17 | 228 | 8.0 | 19.3 | 0.05 | 0.84 | 0.84 | 93 | 1015.2 |
| 20260902190504 | 17 | 256 | 11.3 | 19.3 | 0.03 | 0.81 | 0.81 | 93 | 1015.3 |
| 20260902190004 | 17 | 245 | 14.5 | 27.4 | 0.03 | 0.81 | 0.81 | 93 | 1015.4 |
| 20260902185003 | 17 | 248 | 12.9 | 25.7 | 0.03 | 0.81 | 0.81 | 93 | 1015.3 |
| 20260902184503 | 17 | 228 | 16.1 | 27.4 | 0.03 | 0.81 | 0.81 | 93 | 1015.4 |
| 20260902184004 | 17 | 242 | 17.7 | 25.7 | 0.03 | 0.81 | 0.81 | 93 | 1015.3 |
| 20260902183504 | 17 | 222 | 14.5 | 35.4 | 0.03 | 0.81 | 0.81 | 93 | 1015.2 |
| 20260902183004 | 17 | 250 | 17.7 | 32.2 | 0.03 | 0.81 | 0.81 | 92 | 1015.2 |
| 20260902182504 | 17 | 265 | 11.3 | 22.5 | 0.03 | 0.81 | 0.81 | 93 | 1015.1 |
| 20260902182004 | 17 | 235 | 14.5 | 22.5 | 0.03 | 0.81 | 0.81 | 93 | 1015.1 |
| 20260902181503 | 17 | 243 | 9.7 | 19.3 | 0.00 | 0.79 | 0.79 | 92 | 1015.1 |
| 20260902181004 | 17 | 251 | 11.3 | 20.9 | 0.00 | 0.79 | 0.79 | 92 | 1015.2 |
| 20260902180504 | 17 | 259 | 12.9 | 22.5 | 0.00 | 0.79 | 0.79 | 92 | 1015.3 |
| 20260902175503 | 17 | 229 | 11.3 | 24.1 | 0.00 | 0.79 | 0.79 | 92 | 1015.3 |
| 20260902175003 | 17 | 266 | 8.0 | 19.3 | 0.00 | 0.79 | 0.79 | 92 | 1015.3 |
| 20260902174004 | 17 | 229 | 8.0 | 24.1 | 0.00 | 0.79 | 0.79 | 92 | 1015.2 |
| 20260902173504 | 17 | 259 | 12.9 | 24.1 | 0.00 | 0.79 | 0.79 | 92 | 1015.2 |
| 20260902173003 | 17 | 241 | 9.7 | 20.9 | 0.00 | 0.79 | 0.79 | 92 | 1015.2 |
| 20260902172004 | 18 | 257 | 17.7 | 29.0 | 0.00 | 0.79 | 0.79 | 92 | 1015.1 |
| 20260902171503 | 18 | 226 | 9.7 | 29.0 | 0.00 | 0.79 | 0.79 | 92 | 1015.1 |
| 20260902171004 | 18 | 237 | 16.1 | 25.7 | 0.03 | 0.79 | 0.79 | 92 | 1015.0 |
| 20260902170503 | 18 | 242 | 14.5 | 25.7 | 0.03 | 0.79 | 0.79 | 92 | 1015.0 |
| 20260902165504 | 18 | 261 | 11.3 | 25.7 | 0.03 | 0.79 | 0.79 | 92 | 1014.9 |
| 20260902165003 | 18 | 246 | 17.7 | 32.2 | 0.03 | 0.79 | 0.79 | 92 | 1015.0 |
| 20260902164504 | 18 | 238 | 12.9 | 22.5 | 0.03 | 0.79 | 0.79 | 92 | 1015.0 |
| 20260902163504 | 18 | 244 | 17.7 | 32.2 | 0.03 | 0.79 | 0.79 | 92 | 1015.0 |
| 20260902163004 | 18 | 249 | 16.1 | 27.4 | 0.03 | 0.79 | 0.79 | 92 | 1015.0 |
| 20260902162504 | 18 | 253 | 20.9 | 32.2 | 0.03 | 0.79 | 0.79 | 92 | 1015.1 |
| 20260902162004 | 18 | 264 | 17.7 | 27.4 | 0.03 | 0.79 | 0.79 | 92 | 1015.1 |
| 20260902161004 | 18 | 226 | 14.5 | 29.0 | 0.03 | 0.79 | 0.79 | 92 | 1015.0 |
| 20260902160503 | 18 | 236 | 16.1 | 27.4 | 0.03 | 0.79 | 0.79 | 92 | 1015.0 |
| 20260902155503 | 18 | 261 | 16.1 | 24.1 | 0.05 | 0.79 | 0.79 | 92 | 1015.0 |
| 20260902155004 | 18 | 259 | 14.5 | 24.1 | 0.05 | 0.79 | 0.79 | 92 | 1015.0 |
| 20260902154503 | 18 | 241 | 16.1 | 32.2 | 0.05 | 0.79 | 0.79 | 92 | 1014.9 |
| 20260902153503 | 18 | 231 | 17.7 | 32.2 | 0.05 | 0.79 | 0.79 | 92 | 1014.9 |
| 20260902152504 | 18 | 232 | 12.9 | 19.3 | 0.05 | 0.79 | 0.79 | 93 | 1015.0 |
| 20260902152004 | 18 | 256 | 16.1 | 25.7 | 0.05 | 0.79 | 0.79 | 92 | 1015.0 |
| 20260902151504 | 18 | 241 | 12.9 | 27.4 | 0.05 | 0.79 | 0.79 | 92 | 1015.0 |
| 20260902150503 | 18 | 242 | 9.7 | 32.2 | 0.05 | 0.76 | 0.76 | 92 | 1015.0 |
| 20260902150003 | 18 | 252 | 14.5 | 32.2 | 0.03 | 0.74 | 0.74 | 92 | 1015.0 |
| 20260902145503 | 18 | 256 | 12.9 | 20.9 | 0.00 | 0.71 | 0.71 | 92 | 1015.0 |
| 20260902144004 | 18 | 261 | 9.7 | 19.3 | 0.05 | 0.71 | 0.71 | 92 | 1015.1 |
| 20260902143504 | 18 | 257 | 14.5 | 22.5 | 0.05 | 0.71 | 0.71 | 92 | 1015.1 |
| 20260902143004 | 18 | 242 | 11.3 | 19.3 | 0.05 | 0.71 | 0.71 | 92 | 1015.0 |
| 20260902142504 | 18 | 265 | 11.3 | 20.9 | 0.05 | 0.71 | 0.71 | 92 | 1015.1 |
| 20260902142004 | 18 | 238 | 14.5 | 20.9 | 0.08 | 0.71 | 0.71 | 92 | 1015.1 |
| 20260902141504 | 18 | 223 | 11.3 | 20.9 | 0.08 | 0.71 | 0.71 | 92 | 1015.1 |
| 20260902140504 | 18 | 226 | 14.5 | 32.2 | 0.10 | 0.71 | 0.71 | 92 | 1015.1 |
| 20260902140003 | 18 | 233 | 16.1 | 33.8 | 0.13 | 0.71 | 0.71 | 92 | 1015.2 |
| 20260902135504 | 18 | 248 | 20.9 | 40.2 | 0.13 | 0.71 | 0.71 | 92 | 1015.1 |
| 20260902135004 | 18 | 230 | 11.3 | 32.2 | 0.13 | 0.71 | 0.71 | 92 | 1015.1 |
| 20260902134504 | 18 | 214 | 11.3 | 20.9 | 0.08 | 0.69 | 0.69 | 92 | 1015.0 |
| 20260902134003 | 18 | 207 | 14.5 | 25.7 | 0.13 | 0.69 | 0.69 | 92 | 1014.9 |
| 20260902133503 | 18 | 203 | 12.9 | 24.1 | 0.13 | 0.69 | 0.69 | 92 | 1014.9 |
| 20260902133004 | 18 | 201 | 11.3 | 20.9 | 0.13 | 0.69 | 0.69 | 92 | 1015.0 |
| 20260902132503 | 18 | 214 | 12.9 | 27.4 | 0.10 | 0.66 | 0.66 | 92 | 1015.0 |
| 20260902132003 | 18 | 218 | 11.3 | 19.3 | 0.08 | 0.64 | 0.64 | 92 | 1014.9 |
| 20260902131504 | 18 | 220 | 11.3 | 20.9 | 0.08 | 0.64 | 0.64 | 92 | 1014.9 |